Wind_Speed
13 8 3 4 4 5 1 2 1 3 4 5 9 8 12 11 6 3 12 24 26 26 29 35 33 32 33 34 34 34 34 34 35 34 30 20 10 7 6 6 6 6 6 7 7 7 7 7 8
11 4 3 2 5 4 4 1 4 4 6 8 8 6 9 6 7 4 10 26 23 25 28 33 31 31 31 32 33 33 33 33 34 35 33 30 26 13 8 7 8 8 8 8 7 7 6 7 7
4 4 3 4 4 5 4 4 4 4 7 2 5 8 5 5 11 6 16 21 23 25 26 28 30 31 31 32 31 32 33 33 32 33 33 30 29 25 21 11 9 9 9 8 8 8 8 7 7
2 6 4 4 4 5 3 3 6 5 5 9 6 9 5 14 4 12 15 19 24 25 29 28 30 31 30 33 33 32 34 32 31 31 32 31 29 27 27 22 12 8 8 9 10 10 10 10 9
5 3 4 4 3 2 3 4 4 5 5 5 2 5 5 9 10 14 16 21 27 29 31 33 30 31 30 33 34 34 33 32 31 31 31 30 29 29 26 18 15 9 6 8 10 12 12 12 13
4 3 4 3 4 4 4 3 3 4 5 4 6 5 3 6 12 12 16 21 25 29 31 33 35 33 31 33 34 33 32 32 32 32 32 29 28 28 28 26 25 20 12 9 9 11 13 14 14
5 4 3 4 6 3 3 3 4 4 4 6 2 4 4 11 10 11 17 20 24 28 32 35 36 36 35 34 33 33 32 33 33 33 32 30 28 27 28 26 27 27 20 13 10 11 12 16 17
4 4 3 1 5 4 2 4 3 7 4 2 4 4 2 4 9 11 16 22 26 31 33 34 35 35 35 36 35 34 32 33 33 35 34 33 29 28 26 26 26 27 24 22 14 13 13 14 19
2 4 2 4 6 5 2 4 4 6 7 5 5 4 6 6 10 16 19 25 28 30 32 32 35 36 36 33 35 35 35 36 36 36 36 34 32 31 29 28 27 26 24 20 16 14 17 17 18
5 4 3 2 2 4 4 5 6 4 5 6 8 10 9 11 13 15 17 19 25 28 29 31 32 35 35 35 36 36 35 36 36 36 36 36 34 32 31 30 29 27 24 23 18 14 15 15 16
4 3 3 5 6 6 4 4 3 7 4 3 8 7 7 11 13 14 16 18 20 24 29 31 31 34 35 34 34 35 35 35 34 34 34 33 33 34 33 33 32 30 27 25 25 21 17 17 17
6 6 4 3 4 4 4 5 5 5 4 10 9 11 8 8 10 12 14 19 23 25 28 29 30 33 34 34 35 34 33 33 34 33 32 32 33 34 34 34 32 31 29 30 27 26 24 20 19
5 3 6 6 11 8 8 5 7 7 9 13 13 10 8 9 11 13 14 18 22 26 27 28 28 30 31 32 33 34 34 33 32 31 30 28 30 33 32 33 31 30 30 30 29 26 26 25 23
3 8 6 4 5 5 8 5 5 4 8 9 9 7 8 10 10 12 17 19 22 22 23 25 25 27 28 29 30 31 31 31 32 31 30 25 28 30 30 32 31 30 30 30 28 27 27 27 27
6 5 3 4 2 3 8 3 3 13 9 10 8 7 6 7 9 12 12 15 17 18 19 21 21 22 23 24 25 27 28 29 30 31 29 26 29 27 28 30 30 29 31 30 26 27 27 28 27
4 4 2 1 3 5 0 4 4 10 11 8 7 5 4 5 7 8 9 12 16 19 21 21 22 24 26 27 28 28 27 26 28 29 27 27 28 26 28 28 29 28 31 28 22 25 29 28 27
5 3 3 2 3 2 5 1 7 7 7 7 5 5 4 2 3 5 7 11 14 17 20 23 23 24 25 28 28 28 28 29 30 28 26 26 28 27 27 27 26 28 29 28 20 30 25 26 30
4 3 3 4 3 3 4 4 6 9 9 9 8 6 4 2 2 6 9 12 15 16 17 17 19 19 20 25 25 26 27 27 27 29 28 25 27 27 27 25 25 27 27 27 27 26 24 21 27
3 1 3 2 1 3 5 6 11 10 7 8 7 6 5 4 4 5 9 13 16 16 17 18 19 20 24 27 27 28 27 29 30 27 25 27 27 27 27 24 25 25 23 24 24 26 22 23 22
2 2 4 3 1 3 4 10 7 10 5 6 8 7 6 3 4 8 12 12 15 16 18 19 19 21 26 24 24 23 25 29 28 26 23 26 27 27 26 24 24 24 24 24 22 24 21 19 15
1 3 2 3 6 3 5 6 4 4 4 6 6 5 5 4 4 6 11 14 16 19 21 20 19 26 26 22 26 25 23 21 21 22 24 26 28 27 25 25 24 23 23 23 23 21 17 18 21
3 3 2 3 4 4 3 7 4 5 6 8 8 7 6 5 4 7 11 15 19 23 23 18 22 28 25 24 25 26 25 21 22 26 26 29 28 26 24 24 25 23 23 23 23 17 20 20 20
1 2 1 1 2 4 2 0 4 4 7 10 8 8 8 7 5 7 13 15 21 23 22 19 27 28 27 26 25 26 26 25 26 28 27 27 29 25 23 23 23 24 25 24 23 22 22 20 20
1 3 2 2 2 2 3 4 4 5 6 3 3 7 8 6 6 11 14 19 23 23 19 23 28 26 27 27 26 27 28 29 25 28 29 26 25 24 24 24 24 25 27 25 25 23 24 22 19
4 3 4 4 3 4 2 1 8 5 5 5 8 9 8 5 6 8 15 21 23 24 22 27 24 29 29 28 28 28 29 28 27 26 25 26 26 25 24 25 26 26 26 26 26 25 24 23 22
2 1 3 6 3 5 3 7 5 5 4 4 4 4 5 6 5 7 17 20 23 22 27 28 29 31 31 31 30 30 30 28 27 25 26 27 28 29 28 27 27 26 27 28 26 26 24 22 20
5 4 4 5 4 2 3 6 4 2 3 2 5 5 8 6 5 7 17 21 22 25 27 28 30 30 31 32 33 33 32 30 29 31 29 28 28 29 27 27 28 29 29 28 27 26 24 23 22
2 5 4 2 3 6 5 5 5 4 7 6 6 9 7 4 6 8 14 19 21 25 27 29 28 29 31 32 33 32 35 34 33 31 30 30 31 30 30 29 28 28 29 28 28 25 24 23 22
4 3 3 3 4 5 3 6 6 9 9 9 8 7 6 6 6 7 15 19 23 25 27 27 26 27 31 32 34 35 37 35 32 31 31 30 31 30 30 30 28 27 27 28 28 26 26 25 24
3 6 7 4 6 3 3 8 4 7 5 4 6 5 5 6 6 10 15 19 22 24 25 25 26 27 28 29 31 35 35 34 33 32 31 31 31 32 31 30 29 29 27 27 29 28 24 24 23
Wind_Direction
335 329 320 41 61 68 17 323 281 73 77 345 59 69 94 44 26 83 323 354 352 358 5 20 6 8 11 14 16 17 18 18 19 18 22 20 358 351 343 318 301 288 279 267 261 244 215 192 190
332 329 22 79 91 80 273 342 44 10 129 159 53 18 43 67 8 65 13 349 358 1 7 21 9 11 13 15 17 18 18 18 15 14 15 21 26 2 347 320 312 306 300 287 270 259 246 229 207
331 11 71 84 114 158 165 55 105 49 61 25 102 46 56 2 35 12 349 352 5 10 10 18 12 14 16 17 18 20 19 19 17 14 13 12 19 25 25 12 336 309 301 292 278 268 256 246 229
343 19 38 76 50 16 52 9 113 140 66 46 112 71 77 34 30 5 4 7 17 15 20 20 15 17 18 17 19 22 20 18 17 15 13 11 12 9 14 19 16 349 307 294 283 278 266 256 247
40 64 63 73 85 99 51 84 47 81 106 20 29 119 73 26 25 17 21 22 23 24 25 25 17 17 20 18 19 21 19 18 17 16 13 11 11 11 5 0 1 346 336 322 286 276 273 262 256
36 90 70 165 140 138 97 17 93 62 39 48 75 91 85 21 28 26 31 32 31 28 28 28 26 21 20 19 19 19 18 16 16 15 13 12 10 8 8 5 4 357 338 313 302 284 272 268 257
110 80 155 118 144 132 113 79 58 88 36 28 334 76 139 31 21 35 36 37 35 33 30 28 25 25 24 22 18 17 16 15 14 13 12 10 7 5 4 3 1 357 351 322 293 293 276 268 261
103 94 106 98 183 172 35 83 112 47 59 27 7 111 93 355 28 42 39 37 36 33 30 28 26 23 21 19 19 17 16 14 12 9 7 5 2 359 356 356 353 353 350 343 318 276 270 263 266
103 65 150 170 156 148 126 99 46 60 87 50 33 79 105 60 49 44 36 34 32 32 29 26 23 21 20 18 16 13 13 11 10 6 4 1 1 358 354 352 351 350 348 344 327 302 267 263 260
68 93 139 39 70 124 73 89 123 117 116 84 88 86 87 66 55 45 34 23 25 23 22 21 20 18 16 15 12 11 10 9 7 6 2 359 357 356 352 350 348 344 344 338 334 308 303 278 266
23 89 127 17 103 115 103 78 80 129 65 168 146 131 93 71 56 46 37 30 23 20 19 18 16 14 14 12 9 8 7 5 3 3 2 357 353 352 350 349 348 346 342 336 334 327 316 298 284
85 37 49 21 36 76 77 101 61 34 92 108 116 124 111 77 55 41 33 26 21 19 16 15 14 10 10 9 9 8 6 2 1 360 359 356 352 350 349 347 347 346 343 337 332 328 323 306 287
80 115 53 82 78 72 77 62 119 96 112 112 112 101 85 73 60 49 38 29 20 16 12 12 11 9 7 6 4 3 3 3 0 358 357 356 350 347 345 343 344 344 339 338 333 325 321 313 300
69 89 129 57 80 106 111 150 98 191 143 122 112 97 80 65 48 38 30 22 19 14 12 9 8 6 4 3 1 360 0 358 357 356 356 354 348 347 341 340 340 341 338 336 332 325 321 313 306
137 90 75 21 117 117 132 150 216 154 150 136 134 126 112 93 59 41 25 17 9 9 8 8 3 2 2 360 358 356 355 354 356 354 353 353 349 347 340 338 336 338 337 334 330 325 322 314 306
66 83 161 19 360 177 148 244 139 161 151 151 143 128 110 73 52 34 20 13 10 6 4 2 360 359 357 355 352 351 350 351 352 351 351 353 350 349 341 337 335 335 334 339 330 329 328 322 314
13 223 215 233 40 188 196 248 157 170 154 152 146 140 120 72 20 11 11 10 8 5 1 359 356 355 353 350 346 342 341 343 342 343 346 348 349 347 343 336 334 332 333 336 329 325 327 320 316
205 232 269 249 356 343 215 217 168 177 169 167 165 163 166 206 294 341 360 6 3 359 353 349 349 348 347 343 339 336 335 335 334 335 336 338 342 342 342 337 334 332 332 329 328 330 327 316 316
93 141 252 245 13 316 234 233 193 179 166 169 178 184 197 225 291 342 357 359 352 350 344 341 339 342 343 342 339 333 329 328 328 328 328 327 333 336 336 334 330 333 328 322 324 329 322 322 327
134 186 238 285 249 342 259 249 194 182 182 180 178 190 207 246 309 342 344 341 338 334 341 338 340 340 335 332 330 325 323 321 320 322 318 318 324 328 328 325 327 328 326 322 320 327 318 316 333
161 210 196 248 318 239 319 261 189 192 163 178 195 199 211 236 291 317 319 319 329 336 338 336 338 336 334 332 329 324 320 313 311 312 310 315 318 319 320 319 320 322 323 318 316 319 313 316 314
231 130 84 305 3 263 345 288 237 190 197 204 200 209 228 257 296 298 306 316 333 335 331 327 331 333 333 332 328 322 316 306 307 310 307 313 315 312 313 314 314 315 317 313 313 306 300 311 302
77 36 328 204 191 9 204 161 280 130 226 219 215 227 244 247 260 285 297 317 327 329 325 324 329 329 331 327 323 320 311 308 309 310 309 308 310 311 307 308 308 308 311 307 308 306 302 299 290
69 96 85 65 88 317 184 160 257 189 213 236 232 227 243 256 273 291 308 323 321 329 325 327 329 324 325 326 323 320 315 312 307 308 309 307 304 301 300 299 300 302 302 302 305 300 297 293 285
58 42 313 327 348 251 68 184 261 239 226 208 194 211 232 250 272 287 315 314 324 328 326 327 323 324 325 324 322 319 314 310 303 301 299 299 300 298 294 294 292 293 296 296 298 291 289 285 287
95 144 166 262 284 292 320 237 261 221 272 243 246 235 251 261 264 292 296 314 321 321 324 327 327 324 325 324 320 317 316 307 302 298 296 293 292 291 292 290 290 292 292 290 285 286 284 280 281
160 178 149 118 172 351 250 285 322 306 295 259 243 232 247 253 278 275 307 318 317 322 325 325 324 321 322 322 321 320 318 312 303 301 297 293 290 289 291 288 283 285 288 287 285 279 277 273 273
226 137 89 37 290 271 265 277 246 243 228 237 246 237 250 263 278 292 305 311 319 323 323 323 321 314 318 321 322 316 313 312 307 302 296 293 291 290 288 286 283 281 283 284 281 273 273 269 270
152 183 92 113 178 209 291 257 211 203 198 205 227 235 232 257 280 289 298 313 319 320 323 318 313 314 317 320 318 316 313 309 304 299 296 293 292 289 286 283 281 278 275 277 277 271 269 268 269
190 187 167 172 211 217 154 275 203 210 208 198 247 239 232 241 272 287 299 310 314 316 317 312 312 314 313 313 312 310 308 306 303 300 296 294 291 289 285 282 279 276 271 269 269 268 265 264 265
Height
784 783 782 782 808 822 830 819 819 822 835 844 836 841 854 862 859 861 876 874 870 865 859 854 851 847 842 837 832 827 823 820 819 817 814 812 813 812 811 811 812 812 812 812 811 812 811 811 813
783 783 783 795 820 832 833 818 829 839 836 843 845 850 857 871 872 875 875 874 869 865 861 855 855 850 845 840 835 831 827 823 822 819 816 815 813 813 811 812 812 813 812 812 812 812 813 812 813
783 783 792 811 831 828 828 827 835 842 841 838 851 860 870 880 880 882 882 876 870 867 863 858 856 850 847 843 838 834 830 826 824 823 820 817 814 813 813 812 811 812 812 813 813 812 812 813 814
783 785 800 815 820 833 830 836 835 840 843 847 856 872 880 887 884 885 881 876 873 868 862 858 856 852 849 844 839 835 831 829 826 824 822 820 815 813 812 810 810 810 811 812 812 812 811 812 811
784 795 815 822 828 831 836 838 837 842 850 856 853 875 882 887 887 884 880 876 870 867 862 857 856 853 849 846 840 835 835 833 830 825 823 820 817 814 813 810 810 809 808 809 809 810 811 810 810
796 802 819 825 828 831 838 841 842 852 857 861 864 874 888 889 886 884 881 876 872 868 864 860 856 852 848 845 842 839 838 835 831 827 824 821 818 816 815 812 811 809 807 807 806 807 808 809 809
800 811 818 824 832 830 836 842 850 859 864 868 868 878 889 889 887 885 882 878 873 869 864 859 857 853 850 848 845 841 839 835 831 828 825 822 820 816 814 811 810 808 806 805 805 805 805 806 807
800 809 819 825 829 830 839 847 856 859 870 870 870 881 890 889 888 885 883 879 875 870 866 863 860 855 851 847 845 843 841 838 833 829 826 822 819 817 814 811 809 807 806 804 803 802 801 802 804
797 817 825 822 825 833 841 848 861 867 871 876 879 883 888 889 887 884 880 877 873 870 867 865 862 859 855 852 849 845 841 838 834 830 826 823 821 818 816 815 811 808 806 802 802 799 798 798 799
807 822 821 827 828 837 847 849 859 865 872 881 885 886 887 887 884 882 879 878 875 872 869 866 863 859 855 852 848 845 841 837 834 832 827 824 822 820 817 814 811 808 805 802 799 797 796 795 795
816 823 827 833 835 836 845 854 858 865 873 875 881 885 886 885 883 883 882 880 878 875 871 867 864 860 856 853 850 846 842 840 837 834 831 828 824 820 817 813 810 808 805 801 797 795 794 793 792
825 833 830 837 838 839 850 858 870 871 877 878 881 884 885 885 885 885 883 881 879 876 872 868 865 862 858 855 851 848 844 841 838 835 832 828 824 821 817 814 811 808 806 802 799 796 793 791 789
827 835 841 846 846 852 854 863 869 880 880 881 883 885 886 886 886 885 884 882 879 875 872 869 866 862 859 856 853 850 846 842 840 837 835 831 826 824 819 817 812 807 805 803 799 796 792 789 786
832 838 843 844 847 852 860 869 864 882 879 881 882 884 885 886 886 884 882 880 878 877 873 870 868 865 861 857 854 851 847 844 841 838 836 833 828 825 821 816 811 807 804 801 799 795 791 787 784
833 840 840 845 845 852 855 864 865 873 878 880 882 884 884 884 883 882 882 881 879 877 874 871 868 865 862 859 856 852 848 845 841 838 835 832 828 824 823 819 814 809 804 800 797 793 788 784 781
835 839 839 844 845 851 850 844 874 875 876 880 882 883 884 883 882 882 881 880 877 874 871 869 866 863 859 856 853 850 847 845 842 839 835 832 828 824 821 818 814 809 805 800 797 793 786 784 780
846 834 839 844 853 849 853 855 872 877 880 883 884 885 885 884 884 883 880 879 876 873 870 866 864 862 859 856 853 850 846 842 840 837 834 830 826 823 821 816 812 808 804 800 797 793 789 781 776
847 841 844 842 855 853 849 856 870 872 875 878 882 882 882 882 882 880 879 877 875 873 871 868 865 863 860 857 853 849 845 842 840 836 832 829 825 822 819 815 811 807 802 798 795 791 787 781 777
847 847 847 850 857 857 853 851 864 867 872 878 880 881 880 880 880 879 876 875 874 871 869 866 863 860 857 853 850 846 842 839 836 834 831 827 824 821 817 813 810 807 803 800 796 791 787 781 776
848 850 853 856 857 858 852 848 857 864 868 873 875 878 878 876 875 874 874 874 872 870 867 864 861 857 855 852 849 846 842 837 834 831 828 824 821 818 814 811 807 804 800 797 795 793 788 784 779
858 852 859 860 862 859 862 850 863 864 866 870 873 873 873 873 873 872 872 871 870 867 864 860 858 856 852 848 845 842 838 835 831 828 824 821 817 814 811 807 804 800 797 793 791 791 788 783 780
844 860 862 864 867 860 860 835 863 864 866 867 872 873 873 872 871 871 869 868 866 864 861 858 856 852 848 845 841 838 835 831 827 824 819 816 813 809 806 802 799 796 793 790 789 788 785 784 779
855 862 866 868 872 886 867 879 859 867 868 869 874 875 874 872 870 870 869 867 865 862 859 856 853 849 844 841 839 834 830 827 822 818 813 809 806 803 801 799 796 793 789 787 785 782 781 781 778
862 865 870 876 879 889 861 868 847 871 871 879 879 872 871 872 871 869 867 864 863 859 856 853 849 845 841 837 834 830 825 821 817 812 808 804 800 797 795 792 790 788 784 781 778 777 777 775 775
862 860 849 853 882 838 867 878 844 871 875 873 868 867 866 867 868 866 864 863 859 856 853 850 846 841 837 833 829 825 820 816 812 808 804 800 795 792 789 787 784 782 779 777 773 772 770 770 767
865 866 865 850 859 872 886 877 847 876 878 873 869 869 864 863 864 863 861 859 856 853 850 846 842 836 832 827 823 819 815 811 806 802 799 795 791 786 783 780 778 775 773 771 769 767 764 763 761
867 865 875 895 914 912 870 861 866 862 861 863 864 860 861 858 859 858 856 854 852 849 846 842 837 832 827 822 818 813 809 805 800 796 792 788 784 780 776 774 771 769 766 764 762 760 758 757 755
864 870 876 884 874 868 872 895 852 874 864 861 864 859 858 856 856 854 852 850 847 845 842 838 833 828 823 817 812 807 802 798 794 790 785 781 777 773 769 766 763 761 758 757 755 753 751 750 749
871 874 875 878 889 884 889 857 864 855 854 851 853 854 857 856 853 851 849 846 843 841 838 834 830 824 818 812 807 801 796 792 788 784 778 774 770 766 762 759 756 753 751 749 747 745 744 742 741
858 865 863 851 876 901 910 860 857 858 860 859 853 848 851 850 849 848 846 843 840 837 834 830 825 819 814 808 803 797 791 786 781 776 772 767 762 758 754 751 748 745 743 741 739 737 736 735 733